Location: ???????
(55.4362°N, 38.1183°E)
Time: 21:11:54
(UTC+00:00)

FENGYUN 1C DEB - Visible Passes

Search period start: 24 January 2022 00:00
Search period end: 03 February 2022 00:00
Orbit: 767 x 974 km, 98.6° (Epoch: 24 January)

Date Brightness Start Highest point End Pass type
(mag) Time Alt. Az. Time Alt. Az. Time Alt. Az.
24 Jan ? 15:10:11 10° N 15:12:51 13° NW 15:15:28 10° WNW visible
25 Jan ? 15:04:12 10° N 15:07:06 14° NW 15:09:58 10° WNW visible
26 Jan ? 14:58:13 10° N 15:01:22 15° NW 15:04:26 10° WNW visible
27 Jan ? 14:52:15 10° N 14:55:36 16° NW 14:58:53 10° WNW visible
28 Jan ? 14:46:18 10° N 14:49:51 16° NW 14:53:18 10° WNW visible
29 Jan ? 14:40:22 10° N 14:44:05 17° NW 14:47:42 10° W visible
30 Jan ? 14:34:25 10° N 14:38:19 18° NW 14:42:06 10° W visible
